AMAZONAS 3

Last updated on Wed Oct 29 2025 00:02:48 GMT+0000 (Coordinated Universal Time)

1 39078U 13006A 25301.18511289 -.00000272 00000+0 00000+0 0 9993 2 39078 0.0285 234.1796 0005541 341.1268 187.1422 1.00272620 42580
UTC large
Height (km)
Speed (km/s)
/
Latitude / Longitude
Inclination (degrees)
Orbital Period (minutes)
Azimuth
Elevation
Range (km)
Doppler Factor

Next 0 passes for location: London (51.5072 / 0.1276)

Sorry there are no passes over London.